Showing default

PICO-02I029, 60568

Orbit data source: Space-Track

PICO-02I029, 60568 is a payload satellite owned by Apogeo Space (IT) in LEO that was launched on Fri, 16 Aug 2024 UTC via an FALCON 9 launch vehicle from the Air Force Western Test Range (AFWTR). Payload-class satellites include a variety of spacecraft equipped with specific instruments for various scientific and technological missions. These include communications satellites like Starlink; space stations such as the ISS; scientific satellites like the Hubble; Earth observation satellites from companies like Planet Labs, Umbra, and HawkEye 360; GPS; miniature CubeSats for education and research; and military/defense satellites.

Not visible in the next 10 days
Identifier
60568, 2024-149DE
Orbit
LEO
Country
Flag of ITIT
Related business
Manufacturer
Apogeo Space
Mission
Operational Commercial Communications
Bus & Motor
CUBESAT 0.3U, Unknown motor
Mass
0.5 kg wet, 0.5 kg dry
Launch date (UTC)
2024-08-16 (1 year ago)
Launch vehicle
FALCON 9
Launch site
Air Force Western Test Range (AFWTR)
Object type
Payload
Rocket body
Debris
Shape & HBR
Box, 0.1 m
Radar Cross Section
0.008 m², Medium (>0.1 m² and < 1m²)

Expand to show TLE details & history
Last TLE update: 2 days ago

TLE from 2 days ago
0 PICO-02I029
1 60568U 24149DE  26032.89200780  .12298703  26266-5  29717-2 0  9999
2 60568  97.6523 130.3814 0012899 302.1460  57.8580 16.29224409 81050
Epoch: 2026-02-01T21:24Z
TLE epoch observation values (Epoch: 2026-02-01T21:24:29.473Z)
Latitude
-0.00013°
Longitude
37.16348°
Altitude
193.35 km
Speed
7.793 km/s
True Right ascension
08h 41m 31s
True Declination
0° 00' 00"
Sunlit
Object was in full shadow at epoch
Visualization orbit readout
Latitude
Unknown
Longitude
Unknown
Altitude
Unknown
Speed
Unknown
Apparent Right ascension
Unknown
Apparent Declination
Unknown
Sunlit
N/A
Visualization observer readout
Local Sidereal Time
04:27:16
Azimuth
Unknown
Elevation
Unknown
Doppler factor
Unknown
Orbital elements
Apogee altitude
199.932 km
Perigee altitude
182.984 km
Semi-major axis
6,569.595 km
Eccentricity
0.00129
Inclination
97.6523°
RAAN
130.3814°
Arg. of periapsis
302.146°
True anomaly
57.98326°
Mean anomaly
57.858°
Eccentric anomaly
57.92062°
Mean motion
4.07601 °/min
Orbital period
88.32 mins
BSTAR
0.0029717
Loading maneuver chart data...
Computing Atmospheric mass density...
Loading historical data...
Loading historical data...
Loading historical data...
Loading historical data...
Loading historical data...
Loading historical data...
Loading historical data...

Documentation

Showing up to 5 results
|